www.pogodaiklimat.ru

Погода и климат >> Архив погоды >> Нигерия >> Лагос


ПОГОДА в Лагосе

  • Прогноз погоды в Лагосе
  • Монитор погоды в Лагосе

АРХИВ ПОГОДЫ в Лагосе

Время (UTC), дата Ветер
(напр.,м/с)
 
Видим.   Явления Облачность Т
(С)
Тd
(С)
f
(%)
Тe
(С)
Тes
(С)
Комфортность P
(гПа)
Po
(гПа)
Тmin
(С)
Tmax
(С)
R
(мм)
R24
(мм)
S
(см)
18 10.07 ЮЗ 7 10 км 9/3 330 м
[Cb cap Ac trans Cs]
+26.8 +23.2 81 +36 +36 очень
душно
1015.2 1010.2 +30.6
21 10.07 ЮЗ 3 10 км гроза без осадков 9/1 300 м
[Cb cap Ac As Cs]
+25.7 +23.5 88 +35 +35 очень
душно
1016.1 1011.1
00 11.07 штиль 0 10 км 6/1 270 м
[Sc Cs]
+25.0 +23.6 92 +34 +34 очень
душно
1015.6 1010.6
03 11.07 штиль 0 10 км 8/1 270 м
[Sc Cs]
+24.6 +23.4 93 +33 +33 очень
душно
1014.9 1009.9
06 11.07 СЗ 4 8000 м мгла 9/3 240 м
[Sc Cs]
+24.2 +23.2 94 +32 +32 очень
душно
1015.8 1010.9 +23.5
15 11.07 ЮЗ 9 10 км гроза без осадков 10/6 400 м
[Cb cap Ac As]
+28.5 +24.2 78 +40 +40 очень
душно
1013.2 1008.3
18 11.07 ЮЗ 9 8000 м гроза, ливневой дождь 10/8 240 м
[Cb cap As op]
+24.4 +23.8 96 +33 +33 очень
душно
1014.2 1009.3 +30.5 6
21 11.07 ЮЗ 5 7000 м в посл. час гроза {дождь} туман 9/8 240 м
[Cb cap Ac As]
+24.4 +23.5 95 +33 +33 очень
душно
1014.9 1010.0
00 12.07 штиль 0 8000 м мгла 9/5 240 м
[Sc Ac As Cs]
+24.3 +23.6 96 +33 +33 очень
душно
1015.8 1010.9 9
03 12.07 СВ 5 8000 м гроза без осадков туман 10/5 240 м
[Cb cap As op]
+23.6 +23.0 96 +31 +31 очень
душно
1015.4 1010.5
06 12.07 штиль 0 8000 м гроза без осадков 10/6 210 м
[Cb cap Ac As]
+23.4 +22.8 96 +33 +33 очень
душно
1015.9 1011.0 9
12 12.07 СЗ 4 7000 м гроза, ливневой дождь 9/8 120 м
[Cb cap As op]
+25.2 +24.1 94 +35 +37 очень
душно
1017.0 1012.1 1
15 12.07 штиль 0 7000 м гроза, ливневой дождь 9/8 270 м
[Cb cap Ac As]
+25.2 +23.9 93 +35 +36 очень
душно
1014.5 1009.7
21 12.07 З 4 8000 м мгла 8/1 270 м
[Sc Ac trans Cs]
+24.5 +23.3 93 +33 +33 очень
душно
1016.1 1011.2
00 13.07 Ю 4 5000 м мгла 6/1 240 м
[Sc As trans Cs]
+24.2 +23.3 95 +32 +32 очень
душно
1016.0 1011.1 3
03 13.07 штиль 0 4000 м дымка 8/3 210 м
[Sc Cs]
+23.3 +22.7 96 +32 +32 очень
душно
1015.7 1010.8
06 13.07 штиль 0 3000 м слаб. морось туман 9/6 210 м
[Cb cap Ac trans Cs]
+23.4 +23.0 98 +33 +33 очень
душно
1016.5 1011.6 +22.3 4
09 13.07 штиль 0 10 км 9/5 300 м
[Cb cap As trans Cs]
+26.4 +24.4 89 +37 +42 очень
душно
1018.0 1001.3
12 13.07 ЮЗ 4 10 км 9/6 400 м
[Cb cap As trans Cs]
+29.5 +23.8 71 +40 +44 очень
душно
1016.8 1011.9
15 13.07 ЮЗ 9 10 км 9/6 400 м
[Cu Sc As trans Cs]
+29.4 +23.7 71 +40 +40 очень
душно
1014.7 1009.7
18 13.07 ЮЗ 5 10 км 9/3 330 м
[Cu Sc As trans Cs]
+26.6 +23.4 83 +36 +36 очень
душно
1014.5 1009.6 0.0
21 13.07 ЮЗ 3 10 км 9/3 270 м
[Sc Cs]
+25.2 +24.1 94 +35 +35 очень
душно
1016.6 1011.7
00 14.07 штиль 0 8000 м мгла 9/3 270 м
[Sc Ac As Cs]
+25.2 +24.2 94 +35 +35 очень
душно
1016.9 1011.9 0.0
06 14.07 штиль 0 4000 м дымка 9/3 240 м
[St Cs]
+23.6 +23.2 98 +32 +32 очень
душно
1015.5 1010.6 +22.6 0.0
09 14.07 СЗ 5 10 км 9/6 300 м
[Cu Sc Cs]
+26.4 +24.1 87 +37 +39 очень
душно
1017.1 1012.7
12 14.07 С 10 10 км 9/8 400 м
[Cu Sc Cs]
+29.6 +23.5 70 +40 +40 очень
душно
1015.5 1010.6
15 14.07 ЮЗ 9 10 км 9/4 400 м
[Cb cap As trans Cs]
+30.0 +23.9 70 +41 +42 опасность
перегрева
1012.9 1008.0
18 14.07 З 8 10 км в посл. час морось {дождь} 9/6 330 м
[Cb cap As trans Cs]
+26.6 +23.1 81 +36 +36 очень
душно
1013.1 1008.2 +30.4 0.0
00 15.07 СЗ 4 8000 м мгла 9/3 270 м
[Sc Cs]
+25.0 +23.6 92 +34 +34 очень
душно
1014.5 1009.6 0.0
03 15.07 штиль 0 8000 м мгла 9/3 270 м
[Sc Cs]
+24.7 +23.5 93 +33 +33 очень
душно
1013.6 1008.7
06 15.07 СЗ 3 6000 м мгла 9/3 240 м
[Sc As trans Cs]
+24.4 +23.4 94 +33 +33 очень
душно
1013.8 1008.9 +23.8 0.0
09 15.07 З 5 10 км 10/6 300 м
[Cb cap As trans Cs]
+26.0 +23.9 88 +36 +37 очень
душно
1015.8 1010.9
12 15.07 ЮЗ 4 10 км 10/6 330 м
[Cb cap As op]
+27.2 +22.7 76 +36 +37 очень
душно
1014.1 1009.2
15 15.07 З 9 10 км 9/8 400 м
[Sc Ac As Cs]
+28.5 +23.5 74 +39 +39 очень
душно
1011.6 1006.7
18 15.07 СЗ 6 10 км слаб. дождь {гроза} 9/8 240 м
[Cb cap As op]
+25.0 +23.6 92 +34 +34 очень
душно
1013.4 1008.5 +28.8 0.0
21 15.07 СЗ 3 10 км 9/3 270 м
[Sc Ac As Cs]
+24.5 +23.0 91 +32 +32 очень
душно
1017.4 1009.8
00 16.07 СЗ 5 10 км 9/1 240 м
[Sc Ac As Cs]
+24.2 +23.0 93 +32 +32 очень
душно
1013.9 1009.0 0.0
03 16.07 С 3 10 км 9/3 240 м
[Sc Ac As Cs]
+24.0 +23.0 94 +32 +32 очень
душно
1013.1 1008.2
06 16.07 Ю 5 7000 м дымка 9/4 240 м
[Sc Ac As Cs]
+24.3 +23.6 96 +33 +33 очень
душно
1015.1 1010.1 +23.0 0.0
12 16.07 ЮЗ 3 7000 м гроза, ливневой дождь 9/3 210 м
[Cb cap Ac As]
+23.2 +22.9 98 +32 +37 очень
душно
1016.2 1011.3 33
15 16.07 З 4 10 км 9/6 270 м
[Cb cap Ac As Cs]
+25.4 +24.0 92 +35 +37 очень
душно
1014.1 1009.2
18 16.07 штиль 0 10 км 9/3 270 м
[Sc Ac trans Cs]
+25.0 +22.8 88 +33 +33 очень
душно
1014.3 1009.4 +28.5 35
21 16.07 С 3 10 км 9/4 240 м
[Sc Ac trans Cs]
+23.7 +22.7 94 +31 +31 очень
душно
1016.3 1011.4
03 17.07 штиль 0 8000 м дымка 9/3 210 м
[Sc Ac trans Cs]
+23.0 +22.4 96 +31 +31 очень
душно
1015.7 1010.8
06 17.07 С 4 1500 м дымка 9/3 210 м
[Sc Cs]
+21.5 +21.0 97 +27 +27 душно 1016.5 1011.6 +20.9 35
09 17.07 СЗ 4 7000 м мгла 9/6 300 м
[Cu Sc Cs]
+26.4 +23.8 86 +36 +39 очень
душно
1018.3 1013.4
12 17.07 С 9 10 км 9/6 400 м
[Cu Sc Cs]
+30.2 +24.0 69 +42 +42 опасность
перегрева
1016.2 1011.2
15 17.07 ЮЗ 7 10 км 9/5 420 м
[Cb cap Ac trans Cs]
+30.5 +24.0 68 +42 +43 опасность
перегрева
1013.2 1008.3

 

Местоположение метеостанции Лагос (Нигерия): широта 6.58 долгота 3.33 высота над уровнем моря 38 м.

В архиве по умолчанию представлена погода в Лагосе за последнюю неделю. Архивные данные за месяц целиком и за предыдущие месяцы, начиная с января 2011 года, Вы можете получить, выбрав интересующий диапазон дат из раскрывающегося списка и нажав кнопку "Ввод!".


*Определитесь, кто Вы:
робот инопланетянин человек

Внимание! Время в таблицах - всемирное. Для получения местного времени необходимо прибавить поправку, которая равна 3 ч.

Смотрите также архив погоды в соседних городах и на ближайших метеорологических станциях:

Погода в Лагосе Ошоди (Нигерия) (10 км)
Погода в Иджебу-Оде (Нигерия) (72 км)
Погода в Котону (Бенин) (108 км)
Погода в Ибадане (Нигерия) (114 км)
Погода в Боиконе (Бенин) (154 км)
Погода в Ошогбо (Нигерия) (184 км)
Погода в Саве (Бенин) (187 км)
Погода в Таблигбо (Того) (202 км)
Погода в Акуре (Нигерия) (231 км)
Погода в Ломе (Того) (234 км)

Пояснения к столбцам:

Ветер - указаны скорость ветра в м/с - средняя за 10 мин, порывы в срок и между сроками (в фигурных скобках) и направление, откуда дует ветер: С - северный, СВ - северо-восточный, В - восточный, ЮВ - юго-восточный, Ю - южный, ЮЗ - юго-западный, З - западный, СЗ - северо-западный.
Видимость - горизонтальная дальность видимости в метрах или километрах. При видимости от 1 до 10 км при отсутствии осадков обычно наблюдается дымка, при ухудшении видимости до 1 км и менее - туман. В сухую погоду видимость может ухудшаться дымом, пылью или мглою.
Явления - указаны атмосферные явления, наблюдавшиеся в срок или в последний час перед сроком; фигурными скобками обозначены явления, наблюдавшиеся между сроками (за 1-3 часа до срока); квадратными скобками обозначены град или гололедные отложения с указанием их диаметра в мм.
Облачность - указаны через наклонную черту общая и нижняя облачность в баллах и высота нижней границы облаков в метрах; квадратными скобками обозначены формы облаков: Ci - перистые, Cs - перисто-слоистые, Cc - перисто-кучевые, Ac - высококучевые, As - высокослоистые, Sc - слоисто-кучевые, Ns - слоисто-дождевые, Cu - кучевые, Cb - кучево-дождевые. Подробнее классификацию облаков см. в Атласе облаков (PDF).
T - Температура воздуха - температура, измеренная на высоте 2 м над землей.
Td - Температура точки росы - температура, при понижении до которой содержащийся в воздухе водяной пар достигнет насыщения.
f - Относительная влажность воздуха - влажноcть воздуха, измеренная на высоте 2 м над землей.
Te - Эффективная температура - температура, которую ощущает одетый по сезону человек в тени. Характеристика душности погоды. При расчете учитывается влияние влажности воздуха и скорости ветра на теплоощущения человека.
Tes - Эффективная температура на солнце - температура, которую ощущает человек, с поправкой на солнечный нагрев. Характеристика знойности погоды. Зависит от высоты солнца над горизонтом, облачности и скорости ветра. Ночью, в пасмурную погоду, а также при ветре 12 м/с и более поправка равна нулю.
P - Атмосферное давление - приведенное к уровню моря атмосферное давление.
Po - Атмосферное давление - измеренное на уровне метеостанции атмосферное давление.
Tmin - Минимальная температура - минимум температуры воздуха на высоте 2 м над землей.
Tmax - Максимальная температура - максимум температуры воздуха на высоте 2 м над землей.
R - Количество осадков - Количество выпавших осадков за период времени, мм. При наведении курсора мыши на число - период времени, за который выпало указанное количество осадков.
R24 - Количество осадков - Количество выпавших осадков за 24 часа, мм.
S - Снежный покров - Высота снежного покрова, см. При наведении курсора мыши на число - состояние снежного покрова и степень покрытия местности в баллах.